EW8196 Weather Reports


time (UTC)temp
F
wind
direction
speed
knots
gust
knots
rain 1hr
in
rain 24hr
in
rain mn
in
humidity
%
barometer
mb
20260906172601 65 213 0.0 1.7 0.10 0.68 0.68 92 1016.4
20260906172100 64 212 0.0 1.7 0.11 0.68 0.68 92 1016.5
20260906171830 64 263 0.0 1.7 0.11 0.67 0.67 92 1016.4
20260906171054 64 248 0.0 1.7 0.12 0.67 0.67 92 1016.3
20260906170554 64 140 0.0 1.7 0.11 0.66 0.66 92 1016.2
20260906170337 64 211 0.0 0.9 0.12 0.65 0.65 92 1016.1
20260906165554 64 207 0.0 0.9 0.12 0.64 0.64 92 1015.9
20260906165056 64 207 0.0 0.9 0.11 0.62 0.62 92 1015.7
20260906164553 64 207 0.0 0.9 0.10 0.61 0.61 92 1015.5
20260906164051 63 207 0.0 0.9 0.09 0.60 0.60 91 1015.5
20260906163821 63 207 0.0 0.9 0.09 0.60 0.60 91 1015.6
20260906163319 63 207 0.0 1.7 0.08 0.59 0.59 91 1015.7
20260906162547 63 207 0.0 1.7 0.07 0.58 0.58 91 1015.8
20260906162046 63 242 0.0 0.9 0.07 0.57 0.57 91 1015.8
20260906161544 63 242 0.0 0.9 0.06 0.56 0.56 91 1015.7
20260906161047 63 242 0.0 1.7 0.05 0.55 0.55 91 1015.5
20260906160544 62 242 0.0 1.7 0.05 0.55 0.55 91 1015.3
20260906160056 62 226 0.0 0.9 0.03 0.53 0.53 91 1015.2
20260906155817 62 226 0.0 0.9 0.02 0.52 0.52 90 1015.0
20260906155045 62 226 0.0 2.6 0.01 0.51 0.51 91 1015.0
20260906154545 62 231 0.0 2.6 0.02 0.51 0.51 90 1014.9
20260906154045 62 245 0.9 1.7 0.02 0.51 0.51 90 1014.9
20260906153544 62 221 0.9 1.7 0.02 0.51 0.51 90 1014.9
20260906153044 62 214 0.0 1.7 0.02 0.51 0.51 90 1014.7
20260906152545 62 255 0.0 1.7 0.02 0.51 0.51 90 1014.7
20260906152044 62 254 0.0 1.7 0.01 0.50 0.50 90 1014.6
20260906151541 62 262 0.0 1.7 0.01 0.50 0.50 89 1014.5
20260906151041 62 205 0.0 1.7 0.01 0.50 0.50 90 1014.5
20260906150813 62 225 0.0 1.7 0.02 0.50 0.50 89 1014.4
20260906150050 62 256 0.0 1.7 0.03 0.50 0.50 89 1014.4
20260906145539 61 303 0.0 0.9 0.04 0.50 0.50 88 1014.5
20260906145037 61 311 0.0 0.9 0.06 0.50 0.50 88 1014.6
20260906144810 62 33 0.0 0.0 0.16 0.49 0.49 88 1014.5
20260906144535 62 33 0.0 0.0 0.06 0.49 0.49 88 1014.6
20260906143535 62 33 0.0 0.0 0.22 0.49 0.49 88 1014.5
20260906143031 62 33 0.0 1.7 0.30 0.49 0.49 87 1014.6
20260906142534 62 33 0.0 1.7 0.34 0.49 0.49 86 1014.6
20260906142034 62 5 0.0 0.0 0.45 0.49 0.49 86 1014.5
20260906141527 62 5 0.0 1.7 0.48 0.49 0.49 85 1014.6
20260906141020 62 5 0.0 1.7 0.48 0.49 0.49 84 1014.6
20260906140514 62 10 0.9 2.6 0.47 0.48 0.49 83 1014.6
20260906140004 62 31 0.9 3.5 0.47 0.47 0.47 82 1014.5
20260906135458 63 40 0.0 3.5 0.46 0.46 0.46 81 1014.8
20260906134952 63 355 0.0 1.7 0.44 0.44 0.44 80 1015.0
20260906134442 64 17 0.0 1.7 0.42 0.42 0.43 79 1014.9
20260906133937 65 5 0.0 1.7 0.31 0.31 0.32 79 1014.8
20260906133431 65 197 0.0 0.9 0.25 0.25 0.25 78 1014.8
20260906132928 65 177 0.0 3.5 0.17 0.17 0.18 78 1014.7
20260906132427 66 177 0.9 3.5 0.14 0.14 0.14 76 1014.6
20260906131930 67 163 0.9 2.6 0.02 0.02 0.04 73 1014.7
20260906131441 68 240 0.0 1.7 0.01 0.01 0.01 71 1014.3
20260906130938 69 207 0.0 2.6 0.01 0.01 0.01 69 1013.8
20260906130426 69 207 0.9 4.3 0.01 0.01 0.01 66 1013.8
20260906125923 69 121 1.7 6.1 0.00 0.00 0.00 63 1013.7
20260906125424 71 250 1.7 7.0 0.00 0.00 0.00 56 1013.8
20260906125154 71 263 0.9 7.0 0.00 0.00 0.00 51 1013.9
20260906124423 71 275 0.9 2.6 0.00 0.00 0.00 52 1014.1
20260906124154 70 222 0.0 1.7 0.00 0.00 0.00 53 1013.6
20260906123420 70 236 0.0 0.9 0.00 0.00 0.00 54 1013.1
20260906122920 70 236 0.0 0.9 0.00 0.00 0.00 54 1012.9
20260906122420 70 236 0.0 0.0 0.00 0.00 0.00 54 1012.8
20260906121920 70 236 0.0 0.0 0.00 0.00 0.00 53 1012.8
20260906121657 70 236 0.0 0.0 0.00 0.00 0.00 53 1012.7
20260906120918 70 236 0.0 0.9 0.00 0.00 0.00 54 1012.6
20260906120651 70 236 0.0 0.9 0.00 0.00 0.00 54 1012.5
20260906115919 70 236 0.0 0.9 0.00 0.00 0.00 54 1012.5
20260906115420 70 236 0.0 0.9 0.00 0.00 0.00 54 1012.6
20260906114920 70 236 0.0 0.9 0.00 0.00 0.00 54 1012.6
20260906114417 70 236 0.0 0.9 0.00 0.00 0.00 54 1012.6
20260906113912 70 236 0.0 0.0 0.00 0.00 0.00 54 1012.5
20260906113405 70 236 0.0 0.0 0.00 0.00 0.00 54 1012.5
20260906112905 70 236 0.0 0.9 0.00 0.00 0.00 54 1012.7
20260906112635 70 236 0.0 0.9 0.00 0.00 0.00 54 1012.8
20260906111900 70 236 0.0 0.9 0.00 0.00 0.00 56 1012.9
20260906111632 70 236 0.0 0.9 0.00 0.00 0.00 57 1012.8
20260906110901 70 236 0.0 0.0 0.00 0.00 0.00 57 1012.6
20260906110359 70 236 0.0 0.0 0.00 0.00 0.00 57 1012.6
20260906105856 70 236 0.0 0.0 0.00 0.00 0.00 56 1012.6
20260906105624 70 236 0.0 0.0 0.00 0.00 0.00 55 1012.6
20260906104852 70 236 0.0 0.0 0.00 0.00 0.00 56 1012.7
20260906104620 70 236 0.0 0.0 0.00 0.00 0.00 55 1012.7
20260906103847 70 236 0.0 0.9 0.00 0.00 0.00 56 1012.7
20260906103347 70 236 0.0 0.9 0.00 0.00 0.00 56 1012.8
20260906103117 70 236 0.0 0.0 0.00 0.00 0.00 57 1012.7
20260906102346 70 236 0.0 0.0 0.00 0.00 0.00 56 1012.6
20260906101846 69 236 0.0 0.0 0.00 0.00 0.00 56 1012.6
20260906101345 69 236 0.0 0.0 0.00 0.00 0.00 55 1012.7
20260906100839 69 236 0.0 0.0 0.00 0.00 0.00 56 1012.7
20260906100333 69 236 0.0 0.0 0.00 0.00 0.00 55 1012.7
20260906100058 69 236 0.0 0.0 0.00 0.00 0.00 56 1012.8
20260906095327 69 236 0.0 0.0 0.00 0.00 0.00 55 1012.7
20260906094826 69 236 0.0 0.0 0.00 0.00 0.00 55 1012.8
20260906094328 69 236 0.0 0.9 0.00 0.00 0.00 56 1012.7
20260906093828 69 236 0.0 0.9 0.00 0.00 0.00 56 1012.8
20260906093326 69 236 0.0 0.9 0.00 0.00 0.00 57 1012.7
20260906093056 69 236 0.0 0.0 0.00 0.00 0.00 58 1012.8
20260906092558 69 236 0.0 0.0 0.00 0.00 0.00 57 1012.7
20260906091826 69 236 0.0 0.0 0.00 0.00 0.00 57 1012.7
20260906091326 69 236 0.0 0.9 0.00 0.00 0.00 57 1012.7
20260906090824 69 236 0.0 0.9 0.00 0.00 0.00 57 1012.8
20260906090325 69 236 0.0 0.0 0.00 0.00 0.00 56 1012.9
20260906085825 69 236 0.0 0.9 0.00 0.00 0.00 57 1012.9
20260906085323 69 236 0.0 0.9 0.00 0.00 0.00 57 1012.9
20260906085052 69 236 0.0 0.0 0.00 0.00 0.00 57 1013.0
20260906084321 69 236 0.0 0.9 0.00 0.00 0.00 58 1013.0
20260906083821 69 236 0.0 0.9 0.00 0.00 0.00 58 1013.0
20260906083320 69 236 0.0 0.9 0.00 0.00 0.00 59 1013.0
20260906082823 69 236 0.0 0.9 0.00 0.00 0.00 58 1012.9
20260906082321 69 236 0.0 0.0 0.00 0.00 0.00 58 1013.0
20260906081822 69 236 0.0 0.0 0.00 0.00 0.00 58 1013.1
20260906081323 69 236 0.0 0.0 0.00 0.00 0.00 58 1013.1
20260906080821 69 236 0.0 0.0 0.00 0.00 0.00 58 1013.1
20260906080314 69 236 0.0 0.0 0.00 0.00 0.00 58 1013.1
20260906075809 69 236 0.0 0.9 0.00 0.00 0.00 58 1013.2
20260906075258 69 236 0.0 0.9 0.00 0.00 0.00 58 1013.1
20260906074752 69 236 0.0 0.9 0.00 0.00 0.00 58 1013.2
20260906074246 69 236 0.0 0.0 0.00 0.00 0.00 58 1013.1
20260906073740 69 236 0.0 0.0 0.00 0.00 0.00 58 1013.1
20260906073505 69 236 0.0 0.9 0.00 0.00 0.00 58 1013.0
20260906072727 70 236 0.0 0.9 0.00 0.00 0.00 58 1013.1
20260906072218 70 236 0.0 0.9 0.00 0.00 0.00 57 1013.1
20260906071712 70 236 0.0 0.0 0.00 0.00 0.00 58 1013.0
20260906071205 70 236 0.0 0.9 0.00 0.00 0.00 57 1013.0
20260906070656 70 236 0.0 0.9 0.00 0.00 0.00 57 1013.0
20260906070150 70 236 0.0 0.9 0.00 0.00 0.00 57 1013.1
20260906065645 70 236 0.0 0.9 0.00 0.00 0.00 56 1013.1
20260906065134 70 236 0.0 0.9 0.00 0.00 0.00 56 1013.1
20260906064627 70 236 0.0 0.9 0.00 0.00 0.00 56 1013.1
20260906064122 71 236 0.0 0.9 0.00 0.00 0.00 56 1013.1
20260906063618 71 236 0.0 0.9 0.00 0.00 0.00 56 1013.1
20260906063118 71 236 0.0 0.9 0.00 0.00 0.00 56 1013.1
20260906062615 71 236 0.0 0.9 0.00 0.00 0.00 56 1013.1
20260906062347 71 236 0.0 0.9 0.00 0.00 0.00 56 1013.1
20260906061615 71 236 0.0 0.9 0.00 0.00 0.00 56 1013.1
20260906061116 71 236 0.0 1.7 0.00 0.00 0.00 56 1013.1
20260906060617 71 236 0.0 1.7 0.00 0.00 0.00 56 1013.2
20260906060353 71 234 0.0 1.7 0.00 0.00 0.00 56 1013.1
20260906055617 71 232 0.0 1.7 0.00 0.00 0.00 57 1013.1
20260906055113 71 232 0.0 1.7 0.00 0.00 0.00 56 1013.1
20260906054614 72 242 0.0 1.7 0.00 0.00 0.00 57 1013.1
20260906054113 72 210 0.9 1.7 0.00 0.00 0.00 57 1013.1
20260906053845 72 236 0.9 1.7 0.00 0.00 0.00 57 1013.2
20260906053113 72 241 0.9 2.6 0.00 0.00 0.00 57 1013.2
20260906052613 72 234 0.9 2.6 0.00 0.00 0.00 57 1013.1
20260906052117 72 218 0.9 2.6 0.00 0.00 0.00 56 1013.1
20260906051614 73 204 0.9 2.6 0.00 0.00 0.00 56 1013.2
20260906051112 73 219 0.0 2.6 0.00 0.00 0.00 56 1013.4
20260906050614 73 216 0.0 1.7 0.00 0.00 0.00 55 1013.4
20260906050121 73 220 0.0 0.9 0.00 0.00 0.00 55 1013.4
20260906045610 73 220 0.0 1.7 0.00 0.00 0.00 55 1013.5
20260906045108 73 223 0.0 1.7 0.00 0.00 0.00 55 1013.4
20260906044608 73 240 0.0 1.7 0.00 0.00 0.00 55 1013.5
20260906044107 74 253 0.9 3.5 0.00 0.00 0.00 54 1013.5
20260906043610 74 227 1.7 3.5 0.00 0.00 0.00 54 1013.5
20260906043108 74 196 0.9 3.5 0.00 0.00 0.00 53 1013.5
20260906042835 74 232 0.9 2.6 0.00 0.00 0.00 52 1013.5
20260906042105 75 225 0.9 2.6 0.00 0.00 0.00 50 1013.6
20260906041605 75 222 0.9 1.7 0.00 0.00 0.00 48 1013.5
20260906041118 75 251 0.9 2.6 0.00 0.00 0.00 47 1013.4
20260906040616 75 211 0.9 2.6 0.00 0.00 0.00 45 1013.2
20260906040344 75 229 0.0 1.7 0.00 0.00 0.00 45 1013.2
20260906035831 76 207 0.0 2.6 0.00 0.00 0.00 45 1013.1
20260906035103 76 226 0.9 2.6 0.00 0.00 0.00 44 1013.1
20260906034558 76 226 0.9 2.6 0.00 0.00 0.00 44 1013.1
20260906034102 76 235 0.9 3.5 0.00 0.00 0.00 43 1012.9
20260906033559 77 203 0.0 3.5 0.00 0.00 0.00 42 1012.9
20260906033053 77 238 0.9 2.6 0.00 0.00 0.00 41 1012.9
20260906032547 78 236 0.9 2.6 0.00 0.00 0.00 41 1012.8
20260906032043 78 229 0.0 1.7 0.00 0.00 0.00 40 1012.8
20260906031540 78 229 0.0 1.7 0.00 0.00 0.00 39 1012.7
20260906031042 79 240 0.0 1.7 0.00 0.00 0.00 39 1012.5
20260906030540 80 250 0.0 0.9 0.00 0.00 0.00 38 1012.5
20260906030058 80 250 0.0 0.9 0.00 0.00 0.00 38 1012.5
20260906025539 80 250 0.0 0.0 0.00 0.00 0.00 36 1012.5
20260906025310 81 250 0.0 0.0 0.00 0.00 0.00 36 1012.4
20260906024536 81 250 0.0 0.9 0.00 0.00 0.00 36 1012.4
20260906024033 81 250 0.0 1.7 0.00 0.00 0.00 36 1012.4
20260906023532 81 250 0.0 1.7 0.00 0.00 0.00 36 1012.4
20260906023304 82 249 0.0 1.7 0.00 0.00 0.00 35 1012.4
20260906022532 82 252 0.0 2.6 0.00 0.00 0.00 34 1012.4
20260906022033 83 257 0.0 2.6 0.00 0.00 0.00 33 1012.4
20260906021803 84 268 0.9 6.1 0.00 0.00 0.00 32 1012.4
20260906021032 84 244 0.9 6.1 0.00 0.00 0.00 30 1012.4
20260906020534 85 254 0.0 2.6 0.00 0.00 0.00 24 1012.4
20260906020033 86 265 0.9 2.6 0.00 0.00 0.00 23 1012.3
20260906015533 86 264 0.9 2.6 0.00 0.00 0.00 23 1012.3
20260906015033 87 252 0.9 2.6 0.00 0.00 0.00 22 1012.2
20260906014805 87 243 0.9 2.6 0.00 0.00 0.00 22 1012.2
20260906014033 87 181 0.9 3.5 0.00 0.00 0.00 21 1012.1
20260906013534 88 228 0.9 3.5 0.00 0.00 0.00 21 1012.1
20260906013024 89 219 0.9 2.6 0.00 0.00 0.00 21 1012.1
20260906012748 89 244 0.9 2.6 0.00 0.00 0.00 21 1012.1
20260906012011 89 148 0.9 3.5 0.00 0.00 0.00 20 1012.1
20260906011502 89 168 1.7 5.2 0.00 0.00 0.00 20 1012.1
20260906011226 90 271 1.7 5.2 0.00 0.00 0.00 19 1012.1
20260906010449 90 167 0.9 3.5 0.00 0.00 0.00 18 1012.1
20260906010210 90 238 0.9 3.5 0.00 0.00 0.00 18 1012.1
20260906005433 90 165 0.9 5.2 0.00 0.00 0.00 18 1012.1
20260906005201 90 142 0.9 5.2 0.00 0.00 0.00 19 1012.2
20260906004650 90 248 0.9 3.5 0.00 0.00 0.00 19 1012.1
20260906003912 90 243 0.9 7.0 0.00 0.00 0.00 19 1012.0
20260906003636 90 220 0.9 7.0 0.00 0.00 0.00 19 1011.9
20260906002856 90 259 1.7 7.0 0.00 0.00 0.00 19 1012.0
20260906002349 90 142 1.7 7.0 0.00 0.00 0.00 19 1012.0
20260906001844 91 144 1.7 5.2 0.00 0.00 0.00 18 1012.0
20260906001334 91 251 1.7 5.2 0.00 0.00 0.00 18 1012.0
20260906000828 91 59 1.7 5.2 0.00 0.00 0.00 18 1012.0
20260906000321 91 183 1.7 6.1 0.00 0.00 0.00 18 1012.0
20260905235812 91 209 1.7 6.1 0.00 0.00 0.00 18 1012.0
20260905235307 91 238 1.7 6.1 0.00 0.00 0.00 18 1012.1
20260905234759 91 223 1.7 6.1 0.00 0.00 0.00 18 1012.2
20260905234250 91 153 1.7 7.8 0.00 0.00 0.00 19 1012.2
20260905233745 90 11 2.6 7.8 0.00 0.00 0.00 19 1012.1
20260905233508 91 143 2.6 7.8 0.00 0.00 0.00 19 1012.1
20260905232728 91 262 2.6 7.8 0.00 0.00 0.00 19 1012.1
20260905232222 91 142 2.6 6.1 0.00 0.00 0.00 19 1012.1
20260905231955 91 105 1.7 7.0 0.00 0.00 0.00 20 1012.2
20260905231217 91 189 1.7 7.0 0.00 0.00 0.00 19 1012.1
20260905230717 92 207 1.7 7.8 0.00 0.00 0.00 19 1012.2
20260905230220 92 97 1.7 7.8 0.00 0.00 0.00 20 1012.2
20260905225717 92 177 1.7 6.1 0.00 0.00 0.00 20 1012.2
20260905225219 92 283 2.6 7.8 0.00 0.00 0.00 20 1012.3
20260905224717 92 176 2.6 7.8 0.00 0.00 0.00 19 1012.3
20260905224449 92 161 1.7 7.8 0.00 0.00 0.00 19 1012.3
20260905223717 92 177 2.6 7.8 0.00 0.00 0.00 19 1012.3
20260905223450 91 24 2.6 7.8 0.00 0.00 0.00 18 1012.4
20260905222719 92 220 2.6 6.1 0.00 0.00 0.00 18 1012.4
20260905222213 92 192 2.6 6.1 0.00 0.00 0.00 19 1012.4
20260905221713 92 244 1.7 6.1 0.00 0.00 0.00 18 1012.4
20260905221214 92 138 1.7 5.2 0.00 0.00 0.00 18 1012.5
20260905220945 92 189 1.7 6.1 0.00 0.00 0.00 19 1012.5
20260905220214 92 158 2.6 6.1 0.00 0.00 0.00 19 1012.6
20260905215712 92 288 2.6 6.1 0.00 0.00 0.00 19 1012.7
20260905215213 92 258 2.6 8.7 0.00 0.00 0.00 19 1012.7
20260905214713 92 270 1.7 8.7 0.00 0.00 0.00 19 1012.7
20260905214214 92 186 1.7 5.2 0.00 0.00 0.00 20 1012.8
20260905213714 93 261 1.7 5.2 0.00 0.00 0.00 19 1012.8
20260905213214 92 206 1.7 5.2 0.00 0.00 0.00 20 1012.9
20260905212713 92 181 2.6 7.0 0.00 0.00 0.00 19 1012.9
20260905212620 93 176 1.7 6.1 0.00 0.00 0.00 18 1012.9
20260905212507 92 270 1.7 7.0 0.00 0.00 0.00 19 1012.9
20260905211212 92 5 1.7 6.1 0.00 0.00 0.00 18 1012.9
20260905210713 92 234 1.7 7.8 0.00 0.00 0.00 18 1012.9
20260905210214 92 182 1.7 7.8 0.00 0.00 0.00 19 1013.0
20260905205948 92 253 1.7 7.0 0.00 0.00 0.00 18 1013.1
20260905205212 92 254 1.7 4.3 0.00 0.00 0.00 19 1013.1
20260905204710 93 174 1.7 5.2 0.00 0.00 0.00 19 1013.2
20260905204210 93 140 1.7 5.2 0.00 0.00 0.00 20 1013.2
20260905203721 92 202 1.7 6.1 0.00 0.00 0.00 20 1013.4
20260905203710 92 184 1.7 6.1 0.00 0.00 0.00 21 1013.2
20260905202712 92 275 1.7 4.3 0.00 0.00 0.00 20 1013.5
20260905202205 92 211 1.7 4.3 0.00 0.00 0.00 20 1013.6
20260905201658 92 254 1.7 5.2 0.00 0.00 0.00 20 1013.6
20260905201157 92 244 0.9 5.2 0.00 0.00 0.00 21 1013.6
20260905200928 92 329 1.7 5.2 0.00 0.00 0.00 22 1013.6
20260905200210 92 5 0.9 5.2 0.00 0.00 0.00 23 1013.7
20260905195655 92 345 0.9 2.6 0.00 0.00 0.00 24 1013.7
20260905195153 91 196 0.9 2.6 0.00 0.00 0.00 22 1013.8
20260905194653 91 90 0.9 2.6 0.00 0.00 0.00 23 1013.9
20260905194153 91 267 0.9 2.6 0.00 0.00 0.00 23 1013.9
20260905193653 91 68 0.9 5.2 0.00 0.00 0.00 24 1013.9
20260905193152 90 339 0.9 5.2 0.00 0.00 0.00 25 1014.0
20260905192653 89 117 0.9 3.5 0.00 0.00 0.00 26 1014.1
20260905192152 90 0 0.9 3.5 0.00 0.00 0.00 27 1014.1
20260905191653 90 128 0.9 3.5 0.00 0.00 0.00 26 1014.2
20260905191152 90 33 0.9 3.5 0.00 0.00 0.00 28 1014.3
20260905190651 89 24 0.9 6.1 0.00 0.00 0.00 29 1014.3
20260905190149 89 28 0.9 6.1 0.00 0.00 0.00 30 1014.4
20260905185651 88 88 0.9 1.7 0.00 0.00 0.00 32 1014.5
20260905185422 87 238 0.9 2.6 0.00 0.00 0.00 33 1014.5
20260905184704 87 259 0.9 2.6 0.00 0.00 0.00 31 1014.6
20260905184151 87 285 0.9 2.6 0.00 0.00 0.00 33 1014.6
20260905183935 87 344 0.9 2.6 0.00 0.00 0.00 34 1014.7
20260905183152 87 271 0.0 3.5 0.00 0.00 0.00 35 1014.7
20260905182653 85 339 0.9 3.5 0.00 0.00 0.00 36 1014.7
20260905182141 84 11 0.9 4.3 0.00 0.00 0.00 38 1014.8
20260905181636 84 246 0.9 3.5 0.00 0.00 0.00 37 1014.9
20260905181130 83 190 0.9 1.7 0.00 0.00 0.00 38 1014.9
20260905180620 83 259 0.0 1.7 0.00 0.00 0.00 39 1014.9
20260905180126 82 249 0.9 2.6 0.00 0.00 0.00 40 1014.9
20260905175608 82 315 0.9 3.5 0.00 0.00 0.00 41 1014.9
20260905175057 82 268 0.9 3.5 0.00 0.00 0.00 41 1014.9
20260905174551 82 89 0.9 2.6 0.00 0.00 0.00 42 1014.9
20260905174045 82 237 0.0 1.7 0.00 0.00 0.00 44 1015.0
20260905173534 81 26 0.9 2.6 0.00 0.00 0.00 45 1014.8